Location: Ffm
(50.0000°N, 8.5000°E)
Time: 12:54:52
(UTC+01:00)

ISS - Pass Details

Date: 05 November 2020
Orbit: 418 x 420 km, 51.6° (Epoch: 04 December)

Event Time Altitude Azimuth Distance (km) Brightness Sun altitude
Exits shadow 05:10:02 66° 70° (ENE) 462 -3.5 -21.6°
Drops below altitude 10° 05:13:03 10° 99° (E) 1,503 0.2 -21.1°
Sets 05:15:09 0° 101° (E) 2,367 1.5 -20.7°
